JAF248 EDDP-ELLX

Flight info

Callsign JAF248
Flight time N/A
Altitude 24000
Route NEVKO2Q/08L NEVKO DCT OKKOC DCT TAMEB DCT MASEK DCT TEKTU DCT BOMBI DCT ASKIK DCT RUDUS DCT UBIDU DCT EMGOD DCT NOSPA DCT BETEX
Aircraft B738/M-SDE2E3FGHIRWXY/LB1

Departure

Time N/A
Airport Leipzig/Halle Airport (EDDP)

Arrival

Time 2026-04-30 18:23
Airport Luxembourg-Findel International Airport (ELLX)
Time Latitude Longitude Altitude Speed Heading
2026-04-30 17:39 50.84237 11.10573 25152 ft 447 kts 266°
2026-04-30 17:41 50.80578 10.70746 28652 ft 471 kts 265°
2026-04-30 17:42 50.79895 10.60424 29379 ft 475 kts 268°
2026-04-30 17:42 50.78862 10.44724 30418 ft 481 kts 267°
2026-04-30 17:43 50.78140 10.34235 31055 ft 485 kts 267°
2026-04-30 17:44 50.77031 10.18375 32346 ft 480 kts 268°
2026-04-30 17:44 50.76072 10.02713 33626 ft 474 kts 268°
2026-04-30 17:46 50.74207 9.77093 35434 ft 469 kts 266°
2026-04-30 17:47 50.71226 9.58982 36413 ft 479 kts 236°
2026-04-30 17:48 50.61057 9.45467 36419 ft 477 kts 216°
2026-04-30 17:48 50.53152 9.36025 36409 ft 477 kts 217°
2026-04-30 17:50 50.32034 9.10991 36332 ft 476 kts 216°
2026-04-30 17:51 50.24133 9.01607 35578 ft 474 kts 216°
2026-04-30 17:52 50.16293 8.92424 34829 ft 467 kts 216°
2026-04-30 17:53 50.05855 8.74049 34802 ft 463 kts 259°
2026-04-30 17:54 50.05294 8.54340 34054 ft 449 kts 270°
2026-04-30 17:55 50.05131 8.35512 32623 ft 430 kts 271°
2026-04-30 17:56 50.04898 8.17938 32398 ft 386 kts 271°
2026-04-30 17:57 50.05111 8.05700 31680 ft 372 kts 282°
2026-04-30 17:58 50.06809 7.94136 30906 ft 363 kts 287°
2026-04-30 17:59 50.09735 7.79377 29866 ft 351 kts 294°
2026-04-30 18:00 50.12860 7.65139 28749 ft 343 kts 291°
2026-04-30 18:00 50.15080 7.54626 27881 ft 338 kts 291°
2026-04-30 18:01 50.16532 7.47710 27302 ft 336 kts 291°
2026-04-30 18:02 50.18697 7.37376 26428 ft 331 kts 289°
2026-04-30 18:02 50.18059 7.26950 24819 ft 327 kts 248°
2026-04-30 18:03 50.15279 7.17344 23253 ft 320 kts 245°
2026-04-30 18:04 50.12648 7.07957 21752 ft 312 kts 245°
2026-04-30 18:05 50.09168 6.95795 19749 ft 302 kts 244°
2026-04-30 18:06 50.05790 6.84074 17835 ft 293 kts 244°
2026-04-30 18:07 50.02479 6.72756 15951 ft 282 kts 238°
2026-04-30 18:08 49.98593 6.66096 14241 ft 282 kts 218°
2026-04-30 18:09 49.92819 6.58137 12620 ft 264 kts 218°
2026-04-30 18:10 49.87481 6.50722 11619 ft 257 kts 218°
2026-04-30 18:11 49.82304 6.43171 10600 ft 259 kts 235°
2026-04-30 18:11 49.82541 6.34982 10096 ft 264 kts 290°
2026-04-30 18:12 49.83413 6.26736 9174 ft 261 kts 247°
2026-04-30 18:13 49.81453 6.22252 8696 ft 249 kts 225°
2026-04-30 18:13 49.78573 6.16710 8034 ft 247 kts 225°
2026-04-30 18:14 49.76084 6.11879 7463 ft 244 kts 225°
2026-04-30 18:15 49.72935 6.05758 6722 ft 241 kts 225°
2026-04-30 18:15 49.69965 5.99906 6367 ft 215 kts 225°
2026-04-30 18:16 49.68162 5.96280 5814 ft 211 kts 224°
2026-04-30 18:16 49.65845 5.94333 5362 ft 173 kts 181°
2026-04-30 18:17 49.64667 5.94047 5157 ft 171 kts 180°
2026-04-30 18:17 49.63511 5.93762 5111 ft 171 kts 180°
2026-04-30 18:17 49.61074 5.93185 4824 ft 185 kts 180°
2026-04-30 18:18 49.59787 5.92902 4396 ft 187 kts 180°
2026-04-30 18:18 49.58495 5.92621 3960 ft 187 kts 180°
2026-04-30 18:18 49.57259 5.92634 3519 ft 174 kts 159°
2026-04-30 18:18 49.56363 5.93663 3122 ft 156 kts 117°
2026-04-30 18:19 49.56182 5.95232 2997 ft 148 kts 91°
2026-04-30 18:19 49.56208 5.96826 2997 ft 150 kts 90°
2026-04-30 18:19 49.56226 5.98466 3004 ft 155 kts 90°
2026-04-30 18:19 49.56242 6.00122 3000 ft 154 kts 90°
2026-04-30 18:20 49.56257 6.01764 2991 ft 150 kts 90°
2026-04-30 18:20 49.56271 6.03321 2966 ft 142 kts 90°
2026-04-30 18:20 49.56461 6.04779 2929 ft 139 kts 69°
2026-04-30 18:20 49.56954 6.06058 2951 ft 139 kts 63°
2026-04-30 18:21 49.57474 6.07344 2894 ft 143 kts 64°
2026-04-30 18:21 49.57983 6.08664 2697 ft 142 kts 64°
2026-04-30 18:21 49.58480 6.09980 2504 ft 141 kts 64°
2026-04-30 18:21 49.58968 6.11285 2311 ft 147 kts 63°
2026-04-30 18:22 49.59500 6.12712 2124 ft 154 kts 62°
2026-04-30 18:22 49.60555 6.15541 1707 ft 149 kts 62°
2026-04-30 18:22 49.61064 6.16909 1510 ft 146 kts 61°
2026-04-30 18:23 49.61568 6.18260 1316 ft 144 kts 60°
2026-04-30 18:23 49.62055 6.19546 1243 ft 119 kts 60°
2026-04-30 18:23 49.62348 6.20351 1242 ft 62 kts 54°
2026-04-30 18:23 49.62564 6.20623 1242 ft 12 kts 22°
2026-04-30 18:24 49.62569 6.20626 1242 ft 0 kts 22°
2026-04-30 18:24 49.62570 6.20626 1242 ft 0 kts 22°
2026-04-30 18:25 49.62570 6.20627 1242 ft 0 kts 22°
2026-04-30 18:25 49.62617 6.20657 1242 ft 12 kts 22°
2026-04-30 18:25 49.62709 6.20715 1242 ft 17 kts 22°
2026-04-30 18:26 49.62859 6.20930 1242 ft 12 kts 67°
2026-04-30 18:26 49.62885 6.21020 1242 ft 7 kts 60°
2026-04-30 18:26 49.62910 6.21082 1242 ft 6 kts 68°
2026-04-30 18:27 49.62961 6.21289 1242 ft 10 kts 56°
2026-04-30 18:27 49.62998 6.21389 1242 ft 16 kts 64°
2026-04-30 18:28 49.63057 6.21584 1242 ft 9 kts 64°
2026-04-30 18:28 49.63103 6.21735 1242 ft 16 kts 65°
2026-04-30 18:28 49.63176 6.21883 1242 ft 10 kts 355°
2026-04-30 18:29 49.63233 6.21852 1242 ft 8 kts 325°
2026-04-30 18:29 49.63322 6.21715 1242 ft 3 kts 336°
2026-04-30 18:30 49.63343 6.21698 1242 ft 0 kts 331°
2026-04-30 18:30 49.63346 6.21696 1242 ft 0 kts 331°
2026-04-30 18:31 49.63346 6.21695 1242 ft 0 kts 331°
2026-04-30 18:32 49.63347 6.21695 1242 ft 0 kts 331°
2026-04-30 18:34 49.63347 6.21694 1242 ft 0 kts 331°